This is the latest recevied weather packets stored in our database for station/object WA1TYB-13. If no packets are shown the sender has not sent any weather packets the latest 10 day(s).
| Time | Temp. | Humidity | Pressure | Rain* | Wind** | Luminosity | Snow |
|---|---|---|---|---|---|---|---|
| 1778017798 | 8.33° C | 43% | 1019.3 hPa | 0 mm | - | 303 W/m² | - |
| 1778017496 | 9.44° C | 42% | 1019.5 hPa | 0 mm | - | 401 W/m² | - |
| 1778017193 | 9.44° C | 40% | 1019.3 hPa | 0 mm | - | 369 W/m² | - |
| 1778016891 | 8.89° C | 38% | 1019.3 hPa | 0 mm | - | 324 W/m² | - |
| 1778016587 | 9.44° C | 37% | 1019.3 hPa | 0 mm | - | 476 W/m² | - |
| 1778016283 | 9.44° C | 38% | 1019.5 hPa | 0 mm | - | 507 W/m² | - |
| 1778015980 | 8.89° C | 42% | 1019.4 hPa | 0 mm | - | 327 W/m² | - |
| 1778015678 | 8.89° C | 36% | 1019.4 hPa | 0 mm | - | 315 W/m² | - |
| 1778015374 | 8.89° C | 41% | 1019.3 hPa | 0 mm | - | 321 W/m² | - |
| 1778015071 | 8.89° C | 42% | 1019.3 hPa | 0 mm | - | 350 W/m² | - |
| 1778014768 | 10° C | 43% | 1019.3 hPa | 0 mm | - | 375 W/m² | - |
| 1778014466 | 10° C | 41% | 1019.3 hPa | 0 mm | - | 479 W/m² | - |
| 1778014163 | 9.44° C | 40% | 1019.5 hPa | 0 mm | - | 582 W/m² | - |
| 1778013861 | 9.44° C | 39% | 1019.1 hPa | 0 mm | - | 503 W/m² | - |
| 1778013558 | 8.89° C | 40% | 1019.3 hPa | 0 mm | - | 378 W/m² | - |
| 1778013254 | 9.44° C | 39% | 1019 hPa | 0 mm | - | 363 W/m² | - |
| 1778012950 | 9.44° C | 33% | 1019.1 hPa | 0 mm | - | 485 W/m² | - |
| 1778012646 | 9.44° C | 35% | 1019.1 hPa | 0 mm | - | 313 W/m² | - |
| 1778012343 | 8.89° C | 37% | 1019.1 hPa | 0 mm | - | 363 W/m² | - |
| 1778012040 | 8.89° C | 36% | 1019.4 hPa | 0 mm | - | 361 W/m² | - |
| 1778011738 | 8.89° C | 39% | 1019.1 hPa | 0 mm | - | 299 W/m² | - |
| 1778011435 | 8.89° C | 37% | 1019.4 hPa | 0 mm | - | 252 W/m² | - |
| 1778011131 | 8.89° C | 37% | 1019.1 hPa | 0 mm | - | 321 W/m² | - |
| 1778010828 | 8.89° C | 39% | 1019.4 hPa | 0 mm | - | 366 W/m² | - |
| 1778010525 | 8.89° C | 37% | 1019.4 hPa | 0 mm | - | 301 W/m² | - |
* Rain latest hour (hover to see other rain measurements)
** Current wind speed in m/s (hover to see current wind gust speed)